contact:dominique.lefevre@mio.osupytheas.fr, maurice.libes@osupytheas.fr, didier.mallarino@osupytheas.fr
Project:EMSO http://www.emso-fr.org/EMSO-France
Depth: 2436.0 m
Title:EMSO Ligure Ouest : Data MII capteur MICROCAT
DateTime_Computer,Latitude,Longitude,Temperature,Conductivity,Pressure,DateTime_Instrument
DateTime_Computer,Latitude,Longitude,degC,S m-1,dbar,DateTime_Instrument
2022-04-29T00:03:01Z,42.805,6.029,13.2998,4.60036,2470.31,2022-4-29T02:04:40Z
2022-04-29T00:06:04Z,42.805,6.029,13.2996,4.60035,2470.31,2022-4-29T02:07:43Z
2022-04-29T00:09:07Z,42.805,6.029,13.2999,4.60034,2470.32,2022-4-29T02:10:47Z
2022-04-29T00:12:10Z,42.805,6.029,13.2998,4.60036,2470.297,2022-4-29T02:13:50Z
2022-04-29T00:15:13Z,42.805,6.029,13.3000,4.60037,2470.32,2022-4-29T02:16:53Z
2022-04-29T00:18:16Z,42.805,6.029,13.2998,4.60036,2470.297,2022-4-29T02:19:56Z
2022-04-29T00:21:20Z,42.805,6.029,13.3000,4.60035,2470.32,2022-4-29T02:22:59Z
2022-04-29T00:24:23Z,42.805,6.029,13.2998,4.60034,2470.32,2022-4-29T02:26:02Z
2022-04-29T00:27:26Z,42.805,6.029,13.2997,4.60033,2470.32,2022-4-29T02:29:05Z
2022-04-29T00:30:29Z,42.805,6.029,13.2996,4.60034,2470.343,2022-4-29T02:32:08Z
2022-04-29T00:33:32Z,42.805,6.029,13.2996,4.60035,2470.287,2022-4-29T02:35:12Z
2022-04-29T00:36:35Z,42.805,6.029,13.2999,4.60035,2470.32,2022-4-29T02:38:15Z
2022-04-29T00:39:38Z,42.805,6.029,13.3000,4.60034,2470.273,2022-4-29T02:41:18Z
2022-04-29T00:42:41Z,42.805,6.029,13.2997,4.60034,2470.297,2022-4-29T02:44:21Z
2022-04-29T00:45:45Z,42.805,6.029,13.2998,4.60035,2470.343,2022-4-29T02:47:24Z
2022-04-29T00:48:48Z,42.805,6.029,13.2997,4.60035,2470.297,2022-4-29T02:50:27Z
2022-04-29T00:51:51Z,42.805,6.029,13.2998,4.60035,2470.273,2022-4-29T02:53:30Z
2022-04-29T00:54:54Z,42.805,6.029,13.2998,4.60036,2470.31,2022-4-29T02:56:33Z
2022-04-29T00:57:57Z,42.805,6.029,13.2999,4.60034,2470.297,2022-4-29T02:59:37Z
2022-04-29T01:01:00Z,42.805,6.029,13.3001,4.60034,2470.31,2022-4-29T03:02:40Z
2022-04-29T01:04:03Z,42.805,6.029,13.2997,4.60034,2470.297,2022-4-29T03:05:43Z
2022-04-29T01:07:06Z,42.805,6.029,13.2997,4.60036,2470.273,2022-4-29T03:08:46Z
2022-04-29T01:10:09Z,42.805,6.029,13.2993,4.60034,2470.297,2022-4-29T03:11:49Z
2022-04-29T01:13:13Z,42.805,6.029,13.2996,4.60034,2470.334,2022-4-29T03:14:52Z
2022-04-29T01:16:16Z,42.805,6.029,13.3000,4.60034,2470.297,2022-4-29T03:17:55Z
2022-04-29T01:19:19Z,42.805,6.029,13.2993,4.60033,2470.273,2022-4-29T03:20:58Z
2022-04-29T01:22:22Z,42.805,6.029,13.2998,4.60033,2470.297,2022-4-29T03:24:01Z
2022-04-29T01:25:25Z,42.805,6.029,13.2996,4.60032,2470.297,2022-4-29T03:27:05Z
2022-04-29T01:28:28Z,42.805,6.029,13.2998,4.60034,2470.297,2022-4-29T03:30:08Z
2022-04-29T01:31:31Z,42.805,6.029,13.2996,4.60033,2470.273,2022-4-29T03:33:11Z
2022-04-29T01:34:34Z,42.805,6.029,13.2996,4.60035,2470.297,2022-4-29T03:36:14Z
2022-04-29T01:37:38Z,42.805,6.029,13.2996,4.60035,2470.297,2022-4-29T03:39:17Z
2022-04-29T01:40:41Z,42.805,6.029,13.3000,4.60034,2470.32,2022-4-29T03:42:20Z
2022-04-29T01:43:44Z,42.805,6.029,13.2998,4.60034,2470.273,2022-4-29T03:45:23Z
2022-04-29T01:46:47Z,42.805,6.029,13.2998,4.60034,2470.297,2022-4-29T03:48:26Z
2022-04-29T01:49:50Z,42.805,6.029,13.2996,4.60033,2470.31,2022-4-29T03:51:30Z
2022-04-29T01:52:53Z,42.805,6.029,13.2996,4.60033,2470.273,2022-4-29T03:54:33Z
2022-04-29T01:55:56Z,42.805,6.029,13.2999,4.60033,2470.306,2022-4-29T03:57:36Z
2022-04-29T01:58:59Z,42.805,6.029,13.2998,4.60033,2470.273,2022-4-29T04:00:39Z
2022-04-29T02:02:03Z,42.805,6.029,13.2996,4.60034,2470.297,2022-4-29T04:03:42Z
2022-04-29T02:05:06Z,42.805,6.029,13.2991,4.60033,2470.273,2022-4-29T04:06:45Z
2022-04-29T02:08:09Z,42.805,6.029,13.2997,4.60035,2470.32,2022-4-29T04:09:48Z
2022-04-29T02:11:12Z,42.805,6.029,13.2999,4.60036,2470.31,2022-4-29T04:12:51Z
2022-04-29T02:14:15Z,42.805,6.029,13.2998,4.60034,2470.297,2022-4-29T04:15:55Z
2022-04-29T02:17:18Z,42.805,6.029,13.2999,4.60035,2470.32,2022-4-29T04:18:58Z
2022-04-29T02:20:21Z,42.805,6.029,13.2997,4.60033,2470.297,2022-4-29T04:22:01Z
2022-04-29T02:23:24Z,42.805,6.029,13.2996,4.60035,2470.297,2022-4-29T04:25:04Z
2022-04-29T02:26:28Z,42.805,6.029,13.2993,4.60033,2470.32,2022-4-29T04:28:07Z
2022-04-29T02:29:31Z,42.805,6.029,13.2999,4.60033,2470.31,2022-4-29T04:31:10Z
2022-04-29T02:32:34Z,42.805,6.029,13.2996,4.60035,2470.38,2022-4-29T04:34:13Z
2022-04-29T02:35:37Z,42.805,6.029,13.3001,4.60035,2470.343,2022-4-29T04:37:16Z
2022-04-29T02:38:40Z,42.805,6.029,13.3000,4.60036,2470.31,2022-4-29T04:40:20Z
2022-04-29T02:41:43Z,42.805,6.029,13.2998,4.60035,2470.366,2022-4-29T04:43:23Z
2022-04-29T02:44:46Z,42.805,6.029,13.3000,4.60034,2470.32,2022-4-29T04:46:26Z
2022-04-29T02:47:49Z,42.805,6.029,13.2997,4.60034,2470.357,2022-4-29T04:49:29Z
2022-04-29T02:50:52Z,42.805,6.029,13.2996,4.60036,2470.306,2022-4-29T04:52:32Z
2022-04-29T02:53:56Z,42.805,6.029,13.3001,4.60036,2470.334,2022-4-29T04:55:35Z
2022-04-29T02:56:59Z,42.805,6.029,13.3000,4.60036,2470.343,2022-4-29T04:58:38Z
2022-04-29T03:00:02Z,42.805,6.029,13.2996,4.60034,2470.343,2022-4-29T05:01:41Z
2022-04-29T03:03:05Z,42.805,6.029,13.3000,4.60034,2470.38,2022-4-29T05:04:45Z
2022-04-29T03:06:08Z,42.805,6.029,13.3000,4.60034,2470.366,2022-4-29T05:07:48Z
2022-04-29T03:09:11Z,42.805,6.029,13.3000,4.60034,2470.366,2022-4-29T05:10:51Z
2022-04-29T03:12:14Z,42.805,6.029,13.3000,4.60034,2470.366,2022-4-29T05:13:54Z
2022-04-29T03:15:17Z,42.805,6.029,13.2998,4.60033,2470.39,2022-4-29T05:16:57Z
2022-04-29T03:18:21Z,42.805,6.029,13.3000,4.60035,2470.39,2022-4-29T05:20:00Z
2022-04-29T03:21:24Z,42.805,6.029,13.2996,4.60035,2470.39,2022-4-29T05:23:03Z
2022-04-29T03:24:27Z,42.805,6.029,13.2995,4.60036,2470.366,2022-4-29T05:26:06Z
2022-04-29T03:27:30Z,42.805,6.029,13.3000,4.60035,2470.343,2022-4-29T05:29:09Z
2022-04-29T03:30:33Z,42.805,6.029,13.2994,4.60034,2470.39,2022-4-29T05:32:13Z
2022-04-29T03:33:36Z,42.805,6.029,13.3000,4.60034,2470.427,2022-4-29T05:35:16Z
2022-04-29T03:36:39Z,42.805,6.029,13.3000,4.60036,2470.427,2022-4-29T05:38:19Z
2022-04-29T03:39:42Z,42.805,6.029,13.2998,4.60034,2470.404,2022-4-29T05:41:22Z
2022-04-29T03:42:46Z,42.805,6.029,13.2996,4.60035,2470.39,2022-4-29T05:44:25Z
2022-04-29T03:45:49Z,42.805,6.029,13.3000,4.60035,2470.404,2022-4-29T05:47:28Z
2022-04-29T03:48:52Z,42.805,6.029,13.3000,4.60036,2470.437,2022-4-29T05:50:31Z
2022-04-29T03:51:55Z,42.805,6.029,13.2996,4.60036,2470.413,2022-4-29T05:53:34Z
2022-04-29T03:54:58Z,42.805,6.029,13.2998,4.60036,2470.413,2022-4-29T05:56:38Z
2022-04-29T03:58:01Z,42.805,6.029,13.2996,4.60036,2470.427,2022-4-29T05:59:41Z
2022-04-29T04:01:04Z,42.805,6.029,13.2995,4.60038,2470.45,2022-4-29T06:02:44Z
2022-04-29T04:04:07Z,42.805,6.029,13.2999,4.60035,2470.437,2022-4-29T06:05:47Z
2022-04-29T04:07:11Z,42.805,6.029,13.2998,4.60036,2470.413,2022-4-29T06:08:50Z
2022-04-29T04:10:14Z,42.805,6.029,13.2998,4.60037,2470.474,2022-4-29T06:11:53Z
2022-04-29T04:13:17Z,42.805,6.029,13.2997,4.60034,2470.413,2022-4-29T06:14:56Z
2022-04-29T04:16:20Z,42.805,6.029,13.3001,4.60035,2470.413,2022-4-29T06:17:59Z
2022-04-29T04:19:23Z,42.805,6.029,13.2996,4.60036,2470.437,2022-4-29T06:21:03Z
2022-04-29T04:22:26Z,42.805,6.029,13.2998,4.60035,2470.437,2022-4-29T06:24:06Z
2022-04-29T04:25:29Z,42.805,6.029,13.3000,4.60036,2470.45,2022-4-29T06:27:09Z
2022-04-29T04:28:32Z,42.805,6.029,13.3000,4.60035,2470.45,2022-4-29T06:30:12Z
2022-04-29T04:31:35Z,42.805,6.029,13.2997,4.60036,2470.46,2022-4-29T06:33:15Z
2022-04-29T04:34:39Z,42.805,6.029,13.2997,4.60037,2470.483,2022-4-29T06:36:18Z
2022-04-29T04:37:42Z,42.805,6.029,13.2997,4.60035,2470.437,2022-4-29T06:39:21Z
2022-04-29T04:40:45Z,42.805,6.029,13.3000,4.60036,2470.497,2022-4-29T06:42:24Z
2022-04-29T04:43:48Z,42.805,6.029,13.3001,4.60035,2470.46,2022-4-29T06:45:28Z
2022-04-29T04:46:51Z,42.805,6.029,13.2998,4.60034,2470.423,2022-4-29T06:48:31Z
2022-04-29T04:49:54Z,42.805,6.029,13.2998,4.60036,2470.45,2022-4-29T06:51:34Z
2022-04-29T04:52:57Z,42.805,6.029,13.2998,4.60037,2470.497,2022-4-29T06:54:37Z
2022-04-29T04:56:00Z,42.805,6.029,13.3000,4.60038,2470.507,2022-4-29T06:57:40Z
2022-04-29T04:59:04Z,42.805,6.029,13.3002,4.60035,2470.483,2022-4-29T07:00:43Z
2022-04-29T05:02:07Z,42.805,6.029,13.2999,4.60036,2470.483,2022-4-29T07:03:46Z
2022-04-29T05:05:10Z,42.805,6.029,13.2998,4.60036,2470.507,2022-4-29T07:06:49Z
2022-04-29T05:08:13Z,42.805,6.029,13.2996,4.60036,2470.497,2022-4-29T07:09:53Z
2022-04-29T05:11:16Z,42.805,6.029,13.3001,4.60038,2470.507,2022-4-29T07:12:56Z
2022-04-29T05:14:19Z,42.805,6.029,13.2997,4.60036,2470.483,2022-4-29T07:15:59Z
2022-04-29T05:17:22Z,42.805,6.029,13.3000,4.60035,2470.497,2022-4-29T07:19:02Z
2022-04-29T05:20:25Z,42.805,6.029,13.2998,4.60036,2470.544,2022-4-29T07:22:05Z
2022-04-29T05:23:29Z,42.805,6.029,13.2999,4.60036,2470.483,2022-4-29T07:25:08Z
2022-04-29T05:26:32Z,42.805,6.029,13.2996,4.60037,2470.483,2022-4-29T07:28:11Z
2022-04-29T05:29:35Z,42.805,6.029,13.3000,4.60036,2470.507,2022-4-29T07:31:14Z
2022-04-29T05:32:38Z,42.805,6.029,13.3000,4.60037,2470.497,2022-4-29T07:34:17Z
2022-04-29T05:35:41Z,42.805,6.029,13.2996,4.60035,2470.483,2022-4-29T07:37:21Z
2022-04-29T05:38:44Z,42.805,6.029,13.2998,4.60037,2470.52,2022-4-29T07:40:24Z
2022-04-29T05:41:47Z,42.805,6.029,13.2998,4.60036,2470.474,2022-4-29T07:43:27Z
2022-04-29T05:44:50Z,42.805,6.029,13.2998,4.60036,2470.497,2022-4-29T07:46:30Z
2022-04-29T05:47:54Z,42.805,6.029,13.2996,4.60035,2470.507,2022-4-29T07:49:33Z
2022-04-29T05:50:57Z,42.805,6.029,13.2995,4.60035,2470.507,2022-4-29T07:52:36Z
2022-04-29T05:54:00Z,42.805,6.029,13.2998,4.60035,2470.507,2022-4-29T07:55:39Z
2022-04-29T05:57:03Z,42.805,6.029,13.3002,4.60036,2470.497,2022-4-29T07:58:42Z
2022-04-29T06:00:06Z,42.805,6.029,13.2998,4.60035,2470.483,2022-4-29T08:01:46Z
2022-04-29T06:03:09Z,42.805,6.029,13.2997,4.60035,2470.483,2022-4-29T08:04:49Z
2022-04-29T06:06:12Z,42.805,6.029,13.3000,4.60035,2470.483,2022-4-29T08:07:52Z
2022-04-29T06:09:15Z,42.805,6.029,13.2996,4.60036,2470.52,2022-4-29T08:10:55Z
2022-04-29T06:12:19Z,42.805,6.029,13.2998,4.60036,2470.507,2022-4-29T08:13:58Z
2022-04-29T06:15:22Z,42.805,6.029,13.2997,4.60035,2470.483,2022-4-29T08:17:01Z
2022-04-29T06:18:25Z,42.805,6.029,13.2998,4.60036,2470.52,2022-4-29T08:20:04Z
2022-04-29T06:21:28Z,42.805,6.029,13.2998,4.60035,2470.483,2022-4-29T08:23:07Z
2022-04-29T06:24:31Z,42.805,6.029,13.2998,4.60035,2470.483,2022-4-29T08:26:11Z
2022-04-29T06:27:34Z,42.805,6.029,13.2996,4.60034,2470.52,2022-4-29T08:29:14Z
2022-04-29T06:30:37Z,42.805,6.029,13.2996,4.60034,2470.507,2022-4-29T08:32:17Z
2022-04-29T06:33:40Z,42.805,6.029,13.3000,4.60035,2470.507,2022-4-29T08:35:20Z
2022-04-29T06:36:44Z,42.805,6.029,13.3000,4.60036,2470.52,2022-4-29T08:38:23Z
2022-04-29T06:39:47Z,42.805,6.029,13.3001,4.60036,2470.483,2022-4-29T08:41:26Z
2022-04-29T06:42:50Z,42.805,6.029,13.3000,4.60034,2470.483,2022-4-29T08:44:29Z
2022-04-29T06:45:53Z,42.805,6.029,13.3000,4.60036,2470.483,2022-4-29T08:47:32Z
2022-04-29T06:48:56Z,42.805,6.029,13.2998,4.60036,2470.483,2022-4-29T08:50:36Z
2022-04-29T06:51:59Z,42.805,6.029,13.2998,4.60036,2470.483,2022-4-29T08:53:39Z
2022-04-29T06:55:02Z,42.805,6.029,13.2995,4.60036,2470.507,2022-4-29T08:56:42Z
2022-04-29T06:58:05Z,42.805,6.029,13.2997,4.60035,2470.497,2022-4-29T08:59:45Z
2022-04-29T07:01:08Z,42.805,6.029,13.2998,4.60035,2470.497,2022-4-29T09:02:48Z
2022-04-29T07:04:12Z,42.805,6.029,13.2998,4.60036,2470.483,2022-4-29T09:05:51Z
2022-04-29T07:07:15Z,42.805,6.029,13.3000,4.60034,2470.497,2022-4-29T09:08:54Z
2022-04-29T07:10:18Z,42.805,6.029,13.2998,4.60035,2470.46,2022-4-29T09:11:57Z
2022-04-29T07:13:21Z,42.805,6.029,13.3002,4.60036,2470.497,2022-4-29T09:15:00Z
2022-04-29T07:16:24Z,42.805,6.029,13.2997,4.60036,2470.52,2022-4-29T09:18:04Z
2022-04-29T07:19:27Z,42.805,6.029,13.2995,4.60036,2470.46,2022-4-29T09:21:07Z
2022-04-29T07:22:30Z,42.805,6.029,13.2999,4.60037,2470.52,2022-4-29T09:24:10Z
2022-04-29T07:25:33Z,42.805,6.029,13.3001,4.60036,2470.507,2022-4-29T09:27:13Z
2022-04-29T07:28:37Z,42.805,6.029,13.2996,4.60036,2470.497,2022-4-29T09:30:16Z
2022-04-29T07:31:40Z,42.805,6.029,13.2998,4.60035,2470.483,2022-4-29T09:33:19Z
2022-04-29T07:34:43Z,42.805,6.029,13.2998,4.60035,2470.474,2022-4-29T09:36:22Z
2022-04-29T07:37:46Z,42.805,6.029,13.2997,4.60035,2470.497,2022-4-29T09:39:25Z
2022-04-29T07:40:49Z,42.805,6.029,13.2998,4.60035,2470.46,2022-4-29T09:42:29Z
2022-04-29T07:43:52Z,42.805,6.029,13.2996,4.60036,2470.46,2022-4-29T09:45:32Z
2022-04-29T07:46:55Z,42.805,6.029,13.2996,4.60035,2470.483,2022-4-29T09:48:35Z
2022-04-29T07:49:58Z,42.805,6.029,13.3002,4.60034,2470.46,2022-4-29T09:51:38Z
2022-04-29T07:53:01Z,42.805,6.029,13.2997,4.60034,2470.474,2022-4-29T09:54:41Z
2022-04-29T07:56:05Z,42.805,6.029,13.2998,4.60035,2470.437,2022-4-29T09:57:44Z
2022-04-29T07:59:08Z,42.805,6.029,13.3000,4.60034,2470.474,2022-4-29T10:00:47Z
2022-04-29T08:02:11Z,42.805,6.029,13.2998,4.60033,2470.474,2022-4-29T10:03:50Z
2022-04-29T08:05:14Z,42.805,6.029,13.2999,4.60035,2470.46,2022-4-29T10:06:54Z
2022-04-29T08:08:17Z,42.805,6.029,13.2997,4.60034,2470.45,2022-4-29T10:09:57Z
2022-04-29T08:11:20Z,42.805,6.029,13.2996,4.60036,2470.46,2022-4-29T10:13:00Z
2022-04-29T08:14:23Z,42.805,6.029,13.2998,4.60034,2470.437,2022-4-29T10:16:03Z
2022-04-29T08:17:26Z,42.805,6.029,13.2999,4.60034,2470.46,2022-4-29T10:19:06Z
2022-04-29T08:20:30Z,42.805,6.029,13.2996,4.60034,2470.474,2022-4-29T10:22:09Z
2022-04-29T08:23:33Z,42.805,6.029,13.3000,4.60036,2470.45,2022-4-29T10:25:12Z
2022-04-29T08:26:36Z,42.805,6.029,13.2994,4.60036,2470.45,2022-4-29T10:28:15Z
2022-04-29T08:29:39Z,42.805,6.029,13.2996,4.60036,2470.437,2022-4-29T10:31:19Z
2022-04-29T08:32:42Z,42.805,6.029,13.2999,4.60034,2470.46,2022-4-29T10:34:22Z
2022-04-29T08:35:45Z,42.805,6.029,13.2996,4.60034,2470.45,2022-4-29T10:37:25Z
2022-04-29T08:38:48Z,42.805,6.029,13.3000,4.60036,2470.45,2022-4-29T10:40:28Z
2022-04-29T08:41:51Z,42.805,6.029,13.2999,4.60035,2470.46,2022-4-29T10:43:31Z
2022-04-29T08:44:55Z,42.805,6.029,13.3000,4.60034,2470.46,2022-4-29T10:46:34Z
2022-04-29T08:47:58Z,42.805,6.029,13.2998,4.60036,2470.413,2022-4-29T10:49:37Z
2022-04-29T08:51:01Z,42.805,6.029,13.3000,4.60034,2470.497,2022-4-29T10:52:40Z
2022-04-29T08:54:04Z,42.805,6.029,13.2993,4.60034,2470.427,2022-4-29T10:55:44Z
2022-04-29T08:57:07Z,42.805,6.029,13.2998,4.60033,2470.437,2022-4-29T10:58:47Z
2022-04-29T09:00:10Z,42.805,6.029,13.2992,4.60034,2470.474,2022-4-29T11:01:50Z
2022-04-29T09:03:13Z,42.805,6.029,13.3000,4.60035,2470.427,2022-4-29T11:04:53Z
2022-04-29T09:06:16Z,42.805,6.029,13.2997,4.60034,2470.413,2022-4-29T11:07:56Z
2022-04-29T09:09:20Z,42.805,6.029,13.2996,4.60034,2470.437,2022-4-29T11:10:59Z
2022-04-29T09:12:23Z,42.805,6.029,13.2996,4.60036,2470.413,2022-4-29T11:14:02Z
2022-04-29T09:15:26Z,42.805,6.029,13.2996,4.60034,2470.437,2022-4-29T11:17:05Z
2022-04-29T09:18:29Z,42.805,6.029,13.3000,4.60036,2470.39,2022-4-29T11:20:09Z
2022-04-29T09:21:32Z,42.805,6.029,13.2999,4.60035,2470.413,2022-4-29T11:23:12Z
2022-04-29T09:24:35Z,42.805,6.029,13.2996,4.60034,2470.427,2022-4-29T11:26:15Z
2022-04-29T09:27:38Z,42.805,6.029,13.2997,4.60035,2470.413,2022-4-29T11:29:18Z
2022-04-29T09:30:41Z,42.805,6.029,13.2997,4.60036,2470.404,2022-4-29T11:32:21Z
2022-04-29T09:33:45Z,42.805,6.029,13.2998,4.60035,2470.39,2022-4-29T11:35:24Z
2022-04-29T09:36:48Z,42.805,6.029,13.3000,4.60034,2470.404,2022-4-29T11:38:27Z
2022-04-29T09:39:51Z,42.805,6.029,13.2997,4.60034,2470.39,2022-4-29T11:41:30Z
2022-04-29T09:42:54Z,42.805,6.029,13.3000,4.60035,2470.39,2022-4-29T11:44:34Z
2022-04-29T09:45:57Z,42.805,6.029,13.2996,4.60034,2470.39,2022-4-29T11:47:37Z
2022-04-29T09:49:00Z,42.805,6.029,13.2998,4.60034,2470.413,2022-4-29T11:50:40Z
2022-04-29T09:52:03Z,42.805,6.029,13.2998,4.60035,2470.366,2022-4-29T11:53:43Z
2022-04-29T09:55:06Z,42.805,6.029,13.2997,4.60034,2470.366,2022-4-29T11:56:46Z
2022-04-29T09:58:10Z,42.805,6.029,13.3000,4.60035,2470.404,2022-4-29T11:59:49Z
2022-04-29T10:01:13Z,42.805,6.029,13.2999,4.60034,2470.366,2022-4-29T12:02:52Z
2022-04-29T10:04:16Z,42.805,6.029,13.2996,4.60036,2470.334,2022-4-29T12:05:55Z
2022-04-29T10:07:19Z,42.805,6.029,13.2996,4.60036,2470.343,2022-4-29T12:08:59Z
2022-04-29T10:10:22Z,42.805,6.029,13.3001,4.60034,2470.334,2022-4-29T12:12:02Z
2022-04-29T10:13:25Z,42.805,6.029,13.3000,4.60035,2470.357,2022-4-29T12:15:05Z
2022-04-29T10:16:28Z,42.805,6.029,13.2998,4.60036,2470.343,2022-4-29T12:18:08Z
2022-04-29T10:19:31Z,42.805,6.029,13.2996,4.60035,2470.32,2022-4-29T12:21:11Z
2022-04-29T10:22:35Z,42.805,6.029,13.3002,4.60035,2470.366,2022-4-29T12:24:14Z
2022-04-29T10:25:38Z,42.805,6.029,13.3000,4.60035,2470.297,2022-4-29T12:27:17Z
2022-04-29T10:28:41Z,42.805,6.029,13.3000,4.60035,2470.334,2022-4-29T12:30:20Z
2022-04-29T10:31:44Z,42.805,6.029,13.3000,4.60036,2470.297,2022-4-29T12:33:24Z
2022-04-29T10:34:47Z,42.805,6.029,13.2997,4.60034,2470.357,2022-4-29T12:36:27Z
2022-04-29T10:37:50Z,42.805,6.029,13.3000,4.60034,2470.334,2022-4-29T12:39:30Z
2022-04-29T10:40:53Z,42.805,6.029,13.2997,4.60034,2470.334,2022-4-29T12:42:33Z
2022-04-29T10:43:57Z,42.805,6.029,13.2999,4.60035,2470.297,2022-4-29T12:45:36Z
2022-04-29T10:47:00Z,42.805,6.029,13.3000,4.60035,2470.31,2022-4-29T12:48:39Z
2022-04-29T10:50:03Z,42.805,6.029,13.3002,4.60035,2470.334,2022-4-29T12:51:42Z
2022-04-29T10:53:06Z,42.805,6.029,13.2998,4.60036,2470.287,2022-4-29T12:54:45Z
2022-04-29T10:56:09Z,42.805,6.029,13.2996,4.60034,2470.273,2022-4-29T12:57:49Z
2022-04-29T10:59:12Z,42.805,6.029,13.2998,4.60035,2470.297,2022-4-29T13:00:52Z
2022-04-29T11:02:15Z,42.805,6.029,13.2996,4.60033,2470.31,2022-4-29T13:03:55Z
2022-04-29T11:05:18Z,42.805,6.029,13.2997,4.60034,2470.273,2022-4-29T13:06:58Z
2022-04-29T11:08:22Z,42.805,6.029,13.2999,4.60034,2470.32,2022-4-29T13:10:01Z
2022-04-29T11:11:25Z,42.805,6.029,13.3000,4.60034,2470.32,2022-4-29T13:13:04Z
2022-04-29T11:14:28Z,42.805,6.029,13.2995,4.60034,2470.31,2022-4-29T13:16:07Z
2022-04-29T11:17:31Z,42.805,6.029,13.2999,4.60033,2470.273,2022-4-29T13:19:10Z
2022-04-29T11:20:34Z,42.805,6.029,13.2997,4.60034,2470.26,2022-4-29T13:22:14Z
2022-04-29T11:23:37Z,42.805,6.029,13.2999,4.60034,2470.273,2022-4-29T13:25:17Z
2022-04-29T11:26:40Z,42.805,6.029,13.3002,4.60033,2470.25,2022-4-29T13:28:20Z
2022-04-29T11:29:43Z,42.805,6.029,13.3000,4.60036,2470.25,2022-4-29T13:31:23Z
2022-04-29T11:32:47Z,42.805,6.029,13.2998,4.60034,2470.264,2022-4-29T13:34:26Z
2022-04-29T11:35:50Z,42.805,6.029,13.2998,4.60034,2470.264,2022-4-29T13:37:29Z
2022-04-29T11:38:53Z,42.805,6.029,13.2996,4.60034,2470.25,2022-4-29T13:40:32Z
2022-04-29T11:41:56Z,42.805,6.029,13.2996,4.60033,2470.31,2022-4-29T13:43:36Z
2022-04-29T11:44:59Z,42.805,6.029,13.2998,4.60034,2470.25,2022-4-29T13:46:39Z
2022-04-29T11:48:02Z,42.805,6.029,13.3000,4.60033,2470.25,2022-4-29T13:49:42Z
2022-04-29T11:51:05Z,42.805,6.029,13.2998,4.60034,2470.25,2022-4-29T13:52:45Z
2022-04-29T11:54:08Z,42.805,6.029,13.2998,4.60033,2470.273,2022-4-29T13:55:48Z
2022-04-29T11:57:12Z,42.805,6.029,13.2998,4.60034,2470.273,2022-4-29T13:58:51Z
2022-04-29T12:00:15Z,42.805,6.029,13.2998,4.60035,2470.264,2022-4-29T14:01:54Z
2022-04-29T12:03:18Z,42.805,6.029,13.2995,4.60034,2470.25,2022-4-29T14:04:57Z
2022-04-29T12:06:21Z,42.805,6.029,13.2999,4.60035,2470.264,2022-4-29T14:08:00Z
2022-04-29T12:09:24Z,42.805,6.029,13.2997,4.60034,2470.25,2022-4-29T14:11:04Z
2022-04-29T12:12:27Z,42.805,6.029,13.2996,4.60034,2470.264,2022-4-29T14:14:07Z
2022-04-29T12:15:30Z,42.805,6.029,13.2998,4.60034,2470.24,2022-4-29T14:17:10Z
2022-04-29T12:18:33Z,42.805,6.029,13.3000,4.60035,2470.236,2022-4-29T14:20:13Z
2022-04-29T12:21:37Z,42.805,6.029,13.2998,4.60033,2470.203,2022-4-29T14:23:16Z
2022-04-29T12:24:40Z,42.805,6.029,13.2998,4.60033,2470.25,2022-4-29T14:26:19Z
2022-04-29T12:27:43Z,42.805,6.029,13.2996,4.60037,2470.24,2022-4-29T14:29:22Z
2022-04-29T12:30:46Z,42.805,6.029,13.2996,4.60033,2470.227,2022-4-29T14:32:25Z
2022-04-29T12:33:49Z,42.805,6.029,13.2997,4.60034,2470.227,2022-4-29T14:35:29Z
2022-04-29T12:36:52Z,42.805,6.029,13.2998,4.60033,2470.264,2022-4-29T14:38:32Z
2022-04-29T12:39:55Z,42.805,6.029,13.2997,4.60033,2470.24,2022-4-29T14:41:35Z
2022-04-29T12:42:58Z,42.805,6.029,13.2997,4.60035,2470.203,2022-4-29T14:44:38Z
2022-04-29T12:46:02Z,42.805,6.029,13.2997,4.60033,2470.203,2022-4-29T14:47:41Z
2022-04-29T12:49:05Z,42.805,6.029,13.2998,4.60033,2470.217,2022-4-29T14:50:44Z
2022-04-29T12:52:08Z,42.805,6.029,13.2997,4.60034,2470.25,2022-4-29T14:53:47Z
2022-04-29T12:55:11Z,42.805,6.029,13.2998,4.60033,2470.203,2022-4-29T14:56:51Z
2022-04-29T12:58:14Z,42.805,6.029,13.2996,4.60034,2470.25,2022-4-29T14:59:54Z
2022-04-29T13:01:17Z,42.805,6.029,13.3001,4.60033,2470.264,2022-4-29T15:02:57Z
2022-04-29T13:04:20Z,42.805,6.029,13.3000,4.60035,2470.264,2022-4-29T15:06:00Z
2022-04-29T13:07:23Z,42.805,6.029,13.2996,4.60033,2470.24,2022-4-29T15:09:03Z
2022-04-29T13:10:26Z,42.805,6.029,13.2995,4.60033,2470.203,2022-4-29T15:12:06Z
2022-04-29T13:13:30Z,42.805,6.029,13.2998,4.60035,2470.227,2022-4-29T15:15:09Z
2022-04-29T13:16:33Z,42.805,6.029,13.2998,4.60034,2470.203,2022-4-29T15:18:12Z
2022-04-29T13:19:36Z,42.805,6.029,13.2995,4.60034,2470.227,2022-4-29T15:21:15Z
2022-04-29T13:22:39Z,42.805,6.029,13.2998,4.60034,2470.25,2022-4-29T15:24:19Z
2022-04-29T13:25:42Z,42.805,6.029,13.2998,4.60033,2470.227,2022-4-29T15:27:22Z
2022-04-29T13:28:45Z,42.805,6.029,13.2998,4.60033,2470.24,2022-4-29T15:30:25Z
2022-04-29T13:31:48Z,42.805,6.029,13.2997,4.60034,2470.227,2022-4-29T15:33:28Z
2022-04-29T13:34:52Z,42.805,6.029,13.2998,4.60035,2470.217,2022-4-29T15:36:31Z
2022-04-29T13:37:55Z,42.805,6.029,13.2998,4.60038,2470.227,2022-4-29T15:39:34Z
2022-04-29T13:40:58Z,42.805,6.029,13.3001,4.60034,2470.18,2022-4-29T15:42:37Z
2022-04-29T13:44:01Z,42.805,6.029,13.2998,4.60034,2470.18,2022-4-29T15:45:41Z
2022-04-29T13:47:04Z,42.805,6.029,13.2997,4.60036,2470.18,2022-4-29T15:48:44Z
2022-04-29T13:50:07Z,42.805,6.029,13.2997,4.60033,2470.166,2022-4-29T15:51:47Z
2022-04-29T13:53:10Z,42.805,6.029,13.2996,4.60033,2470.18,2022-4-29T15:54:50Z
2022-04-29T13:56:13Z,42.805,6.029,13.2998,4.60036,2470.18,2022-4-29T15:57:53Z
2022-04-29T13:59:17Z,42.805,6.029,13.2998,4.60035,2470.203,2022-4-29T16:00:56Z
2022-04-29T14:02:20Z,42.805,6.029,13.2995,4.60033,2470.203,2022-4-29T16:03:59Z
2022-04-29T14:05:23Z,42.805,6.029,13.2999,4.60035,2470.18,2022-4-29T16:07:02Z
2022-04-29T14:08:26Z,42.805,6.029,13.2996,4.60033,2470.217,2022-4-29T16:10:05Z
2022-04-29T14:11:29Z,42.805,6.029,13.2996,4.60032,2470.217,2022-4-29T16:13:09Z
2022-04-29T14:14:32Z,42.805,6.029,13.2995,4.60034,2470.171,2022-4-29T16:16:12Z
2022-04-29T14:17:35Z,42.805,6.029,13.2994,4.60034,2470.264,2022-4-29T16:19:15Z
2022-04-29T14:20:38Z,42.805,6.029,13.2994,4.60034,2470.18,2022-4-29T16:22:18Z
2022-04-29T14:23:42Z,42.805,6.029,13.2996,4.60035,2470.203,2022-4-29T16:25:21Z
2022-04-29T14:26:45Z,42.805,6.029,13.3000,4.60036,2470.18,2022-4-29T16:28:24Z
2022-04-29T14:29:48Z,42.805,6.029,13.2994,4.60036,2470.217,2022-4-29T16:31:27Z
2022-04-29T14:32:51Z,42.805,6.029,13.3001,4.60036,2470.203,2022-4-29T16:34:31Z
2022-04-29T14:35:54Z,42.805,6.029,13.2998,4.60034,2470.203,2022-4-29T16:37:34Z
2022-04-29T14:38:57Z,42.805,6.029,13.2998,4.60034,2470.194,2022-4-29T16:40:37Z
2022-04-29T14:42:00Z,42.805,6.029,13.2993,4.60035,2470.227,2022-4-29T16:43:40Z
2022-04-29T14:45:03Z,42.805,6.029,13.2998,4.60035,2470.227,2022-4-29T16:46:43Z
2022-04-29T14:48:07Z,42.805,6.029,13.2996,4.60035,2470.217,2022-4-29T16:49:46Z
2022-04-29T14:51:10Z,42.805,6.029,13.2997,4.60035,2470.203,2022-4-29T16:52:49Z
2022-04-29T14:54:13Z,42.805,6.029,13.2997,4.60033,2470.203,2022-4-29T16:55:52Z
2022-04-29T14:57:16Z,42.805,6.029,13.2997,4.60035,2470.264,2022-4-29T16:58:56Z
2022-04-29T15:00:19Z,42.805,6.029,13.2996,4.60033,2470.24,2022-4-29T17:01:59Z
2022-04-29T15:03:22Z,42.805,6.029,13.2995,4.60033,2470.227,2022-4-29T17:05:02Z
2022-04-29T15:06:25Z,42.805,6.029,13.2996,4.60035,2470.18,2022-4-29T17:08:05Z
2022-04-29T15:09:28Z,42.805,6.029,13.2996,4.60035,2470.203,2022-4-29T17:11:08Z
2022-04-29T15:12:32Z,42.805,6.029,13.2998,4.60034,2470.24,2022-4-29T17:14:11Z
2022-04-29T15:15:35Z,42.805,6.029,13.2997,4.60035,2470.217,2022-4-29T17:17:14Z